Flag for United Arab Emirates Weather past 2 weeks in Al Ain, Abu Dhabi, United Arab Emirates

Now
97 °F

Clear.


Feels Like: 96 °F
Forecast: 86 / 112 °F
Wind: 10 mph from Southeast

Location: Al Ain International Airport

Current Time: Aug 30, 2015 at 4:01:42 AM

Latest Report: Aug 30, 2015 at 3:00 AM


Visibility: 10 mi

Pressure: 29.65 "Hg

Humidity: 28%

Dew point: 59 °F

Historic Weather in Al Ain — Graph

°F

Al Ain temperature yesterday

Maximum temperature yesterday: 113 °F (at 2:00 PM)
Minimum temperature yesterday: 93 °F (at 2:00 AM)
Average temperature yesterday: 103 °F

Past Weeks' High & Low Weather Summary

 TemperatureHumidityPressure
High117 °F (Aug 28, 1:00 PM)66% (Aug 18, 7:00 AM)29.74 "Hg (Aug 18, 7:00 AM)
Low84 °F (Aug 18, 7:00 AM)6% (Aug 28, 1:00 PM)29.53 "Hg (Aug 15, 4:00 PM)
Average99 °F30%29.64 "Hg
* Reported Aug 15 3:00 AM — Aug 30 3:00 AM, Al Ain, Weather by CustomWeather, © 2015

Note: Actual official high and low records may vary slightly from our data, if they occured in-between our weather recording intervals... More about our weather records

Advertising

Al Ain weather history for previous 24 hours

 ConditionsComfort  
Time TempWeatherWind HumidityBarometerVisibility
3:00 AM
Sun, Aug 30
97 °FClear.10 mph28%29.65 "Hg10 mi
2:00 AM99 °FClear.12 mph27%29.65 "Hg5 mi
1:00 AM100 °FClear.10 mph27%29.65 "Hg5 mi
12:00 AM102 °FClear.9 mph27%29.68 "Hg5 mi
11:00 PM
Sat, Aug 29
102 °FClear.6 mph37%29.65 "Hg5 mi
10:00 PM104 °FClear.8 mph38%29.65 "Hg5 mi
9:00 PM106 °FClear.10 mph34%29.65 "Hg5 mi
8:00 PM108 °FClear.6 mph19%29.62 "Hg10 mi
7:00 PM111 °FPassing clouds.6 mph16%29.59 "HgN/A
6:00 PM111 °FPassing clouds.6 mph17%29.59 "HgN/A
5:00 PM113 °FPassing clouds.9 mph15%29.59 "HgN/A
4:00 PM113 °FPassing clouds.6 mph15%29.59 "HgN/A
3:00 PM111 °FPassing clouds.8 mph17%29.62 "HgN/A
2:00 PM113 °FPassing clouds.12 mph16%29.62 "HgN/A
1:00 PM109 °FSunny.14 mph18%29.65 "Hg10 mi
11:00 AM106 °FClear.17 mph20%29.68 "Hg5 mi
10:00 AM104 °FClear.20 mph23%29.68 "Hg5 mi
9:00 AM100 °FSunny.18 mph27%29.68 "Hg10 mi
8:00 AM97 °FSunny.16 mph32%29.68 "Hg10 mi
7:00 AM93 °FSunny.9 mph39%29.65 "Hg10 mi
6:00 AM93 °FSunny.9 mph39%29.65 "Hg10 mi
5:00 AM95 °FClear.7 mph36%29.62 "Hg10 mi
4:00 AM93 °FPassing clouds.5 mph49%29.62 "HgN/A
Weather by CustomWeather, © 2015

See weather overviewHow to use our weather pages